Погода в Дулуте

США     46°47′40″N   92°05′37″W
темп.,
°C
ветер,
м/с
пор.,
м/с
влажн.,
%
обл.,
%
осадки,
мм/ч
давл.,
гПа
погр.,
м
19 апреля, пн
пн1901:000сз7117660 0.1 1012895
04:000ссз7107191 0.0 10131023
07:00−2ссз7127269 0.0 1014926
10:00+1ссз7956100 0.0 10151450
13:00+2ссз7850100 0.1 10161655
16:00+4ссз5839100 0.0 10151979
19:00+4ссз584091 0.0 10161029
22:000сз375099 0.0 1018326
20 апреля, вт
вт2001:000сз485682 0.0 1019315
04:00−1ссз47585 0.0 1019296
07:00−1ссз24585 0.0 1020221
10:00+2ссз124199 0.0 10211103
13:00+4ссз0341100 0.1 10201286
16:00+4ссв2341100 0.1 10181431
19:00+3с134987 0.1 1019351
22:000с366594 0.2 1021299
21 апреля, ср
ср2101:00−1с248776 0.6 1021196
04:00−1сз237699 0.0 1021307
07:00−1ссз357087 0.0 1021371
10:00+2сз244593 0.1 10211619
13:00+4сз243499 0.1 10202023
16:00+6зсз2433100 0.0 10181548
19:00+5ссз344268 0.0 1018173
22:00+1з385318 0.0 1019188
22 апреля, чт
чт2201:000з25575 0.0 1019122
04:00−1зюз37605 0.0 1018180
07:00+1зюз4116413 0.0 1018327
10:00+7зюз69485 0.0 1016521
13:00+11зюз68405 0.0 10141246
16:00+13зюз69388 0.0 10121370
19:00+11зюз610495 0.0 1012364
22:00+6юз37670 0.0 1014102
23 апреля, пт
пт2301:00+4юз36730 0.0 101383
04:00+3юз36745 0.0 1013106
07:00+4юз3975100 0.0 1012212
10:00+9юз586682 0.0 1012496
13:00+12ююз565451 0.1 10101224
16:00+11юз666344 0.2 1010854
19:00+8юз467858 0.2 1011493
22:00+6ююз359176 0.0 1012118